Regional Weather Roundup
Issued by NWS Cleveland, OH

Home | Current Version | Previous Version | Graphics & Text | Print | Product List | Glossary On
Versions: 1 2 3 4 5 6 7 8 9 10 11 12 13 14 15 16 17 18 19 20 21 22 23 24 25 26 27 28 29 30 31 32 33 34 35 36 37 38 39 40 41 42 43 44 45 46 47 48 49 50
000
ASUS41 KCLE 012202
RWRCLE
OHIO REGIONAL WEATHER ROUNDUP
NATIONAL WEATHER SERVICE CLEVELAND, OH
600 PM EDT SUN MAY 01 2016

NOTE: "FAIR" INDICATES FEW OR NO CLOUDS BELOW 12,000 FEET WITH NO
SIGNIFICANT WEATHER AND/OR OBSTRUCTIONS TO VISIBILITY.

OHZ001>008-015>018-024>027-034-035-043-044-012300-
   NORTHWEST OHIO

CITY           SKY/WX    TMP DP  RH WIND       PRES   REMARKS
DEFIANCE       CLOUDY    56  51  84 NE9       29.97R
FINDLAY        CLOUDY    56  50  80 NE14      29.95R HAZE
TOLEDO EXPRESS CLOUDY    54  50  86 NE7       29.96S
TOLEDO EXEC    CLOUDY    55  49  80 NE6       29.98S HAZE
LIMA           MOSUNNY   63  59  87 N14       29.91S
$$

OHZ009>014-019>023-028>033-038-089-012300-
   NORTHEAST OHIO

CITY           SKY/WX    TMP DP  RH WIND       PRES   REMARKS
CLE-HOPKINS    CLOUDY    55  50  83 NE9       29.98S
CLE-LAKEFRONT  CLOUDY    50  47  89 NE12      29.96F FOG
CUY CO. ARPT   CLOUDY    57  50  77 N9        29.97R
LORAIN-ELYRIA  CLOUDY    55  48  77 NE12      29.96S
ASHTABULA      CLOUDY    53  49  86 N8        29.97R
AKRON-CANTON   LGT RAIN  68  59  73 W6        29.90F
WOOSTER        LGT RAIN  68  60  75 NW13      29.92R
MANSFIELD      MOSUNNY   63  57  81 N10       29.93S
YOUNGSTOWN     MOSUNNY   66  57  72 N16       29.91R
$$

OHZ042-051>053-060>062-070>072-077>081-012300-
  SOUTHWEST OHIO

CITY           SKY/WX    TMP DP  RH WIND       PRES   REMARKS
CINC-COVINGTON CLOUDY    75  58  55 S7        29.90R
CINC-LUNKEN    MOSUNNY   78  59  51 S7        29.89R
HAMILTON       MOSUNNY   77  60  55 CALM      29.90R
DAYTON         MOSUNNY   76  55  48 W8        29.90S
WRIGHT-PAT AFB NOT AVBL
DAYTON GENERAL PTSUNNY   76  54  46 W5        29.89R
WILMINGTON     PTSUNNY   77  59  53 CALM      29.90R
$$

OHZ036-037-039>041-045>050-054>059-063>069-073>076-082>088-012300-
  CENTRAL AND SOUTHEAST OHIO

CITY           SKY/WX    TMP DP  RH WIND       PRES   REMARKS
COLUMBUS       PTSUNNY   71  58  63 N10       29.89R
OSU AIRPORT    MOSUNNY   75  58  55 N7        29.90R
BOLTON FIELD   MOSUNNY   75  59  57 W8        29.90R
RICKENBACK AFB SUNNY     76  59  56 W5        29.89R
NEWARK         PTSUNNY   70  56  61 N8        29.91R
MARION         PTSUNNY   67  61  81 NE13      29.92S HAZE
LANCASTER      MOSUNNY   76  57  51 W8        29.90R
ZANESVILLE     MOSUNNY   78  58  49 VRB3      29.90R
NEW PHILLY     MOSUNNY   69  57  65 NW5       29.91S
$$




USA.gov is the U.S. government's official web portal to all federal, state and local government web resources and services.